Regional Weather Roundup
Issued by NWS

Home | Current Version | Previous Version | Graphics & Text | Print | Product List | Glossary On
Versions: 1 2 3 4 5 6 7 8 9 10 11 12 13 14 15 16 17 18 19 20 21 22 23 24 25 26 27 28 29 30 31 32 33 34 35 36 37 38 39 40 41 42 43 44 45 46 47 48 49 50
000
ASUS43 KTOP 221608
RWRKS

WEATHER ROUNDUP FOR KANSAS
NATIONAL WEATHER SERVICE GOODLAND KS
1100 AM CDT THU JUN 22 2017

NOTE:  "FAIR" INDICATES FEW OR NO CLOUDS BELOW 12,000 FEET WITH NO
SIGNIFICANT WEATHER AND/OR OBSTRUCTIONS TO VISIBILITY.

KSZ001>006-013>018-027>032-041>047-221700-
NORTHWEST KANSAS

CITY           SKY/WX    TMP DP  RH WIND       PRES   REMARKS
GOODLAND       SUNNY     91  53  27 NW14      29.76R
HAYS           SUNNY     86  62  44 S17       29.68F
HILL CITY      SUNNY     87  63  44 S10       29.66F
RUSSELL        SUNNY     87  59  38 S21       29.67F
$$

KSZ061>065-074>080-084>089-221700-
SOUTHWEST KANSAS

CITY           SKY/WX    TMP DP  RH WIND       PRES   REMARKS
DODGE CITY     SUNNY     83  61  47 S20       29.75F
ELKHART          N/A     84  55  36 W9          N/A
GARDEN CITY    SUNNY     82  62  50 SW12      29.75F
GREAT BEND     SUNNY     86  62  44 S13       29.71F
LIBERAL        SUNNY     80  63  55 S13       29.77F
PRATT          SUNNY     81  58  45 S9        29.75F
$$

KSZ066>073-081>083-090>101-221700-
SOUTHEAST KANSAS

CITY           SKY/WX    TMP DP  RH WIND       PRES   REMARKS
CHANUTE        CLOUDY    80  69  69 S14       29.78F
COFFEYVILLE    CLOUDY    80  71  74 S9        29.78S
HUTCHINSON     SUNNY     85  62  46 S20       29.73F
MEDICINE LODGE   N/A     84  60  44 S10       29.74F
NEWTON         SUNNY     82  65  56 S22       29.75F
PARSONS        CLOUDY    80  69  69 S7        29.79F
WICHITA INTL   MOSUNNY   83  67  58 S17       29.75F
WICHITA JABRA  SUNNY     80  68  66 S18G25    29.75F
WICHITA MCCONL SUNNY     80  66  61 S16       29.76F
WINFIELD       SUNNY     82  68  62 SW9       29.79F
$$

KSZ007>012-019>026-033>040-048>060-102>105-221700-
NORTHEAST KANSAS

CITY           SKY/WX    TMP DP  RH WIND       PRES   REMARKS
CONCORDIA      SUNNY     84  65  52 S18       29.66F
EMPORIA        SUNNY     80  70  71 S15G24    29.76F
LAWRENCE       MOSUNNY   83  71  67 S13       29.76R
MANHATTAN      SUNNY     87  65  47 S14       29.69F
MARYSVILLE     SUNNY     82  68  61 S15G21    29.68F
OLATHE IND     SUNNY     81  69  67 S13       29.77F
OLATHE EXE     MOSUNNY   80  70  71 S14       29.77S
SALINA         SUNNY     89  62  40 S23G29    29.69F
TOPEKA BILLARD MOSUNNY   82  70  66 S15       29.74S
TOPEKA FORBES  SUNNY     83  70  64 S16G23    29.74F
$$




USA.gov is the U.S. government's official web portal to all federal, state and local government web resources and services.